Résultats de la compétition "Régionale Müllheim" du 25-03-2007 organisée par le club 6804
     
  Télécharger le fichier CSV.  
     
     

 Circuit "A"

Licence Nom Prénom Temps CN
précédent
Score sur
la course
Différence
1911MEYERKirian0:55:55N/A5564N/A
18689MARTINFalk0:56:57N/A5463N/A
12759SCHAMBERGERPierre1:06:44N/A4662N/A
12896BOTOJeremi1:07:44N/A4593N/A
17898GAINEFrancis1:08:11N/A4563N/A
10428PHILIPPEEudes1:15:51N/A4102N/A
8042FLECKFrederick1:16:10N/A4085N/A
12830REICHYann1:19:48N/A3899N/A
16683NOEGELENFabian1:19:59N/A3890N/A
5743MOLLDavid1:20:12N/A3879N/A
6819HOUDAYERPhilippe1:24:47N/A3670N/A
7004PHILIPPERenaud1:27:28N/A3557N/A
346LAHAUSSEOlivier1:27:54N/A3539N/A
10812DRUZETICStephane1:28:33N/A3513N/A
10998RENAUDBernard1:43:39N/A3002N/A
11615ANDRESAugustinN/AN/A0N/A
18665SOLTYSIAKCezaryN/AN/A0N/A

  Indice de confiance du circuit (moyenne des différences entre CN et score sur la course des 3 à 10 premiers) : 228




 Circuit "B"

Licence Nom Prénom Temps CN
précédent
Score sur
la course
Différence
13040VILLARChristophe0:46:53N/A5771N/A
10906COLINFranck0:48:57N/A5528N/A
736POURREAlain0:49:23N/A5479N/A
6523WYMEREddie0:49:56N/A5419N/A
2372DIETSCHBernard0:51:27N/A5259N/A
1335BEAUDEUXPhilippe0:53:05N/A5097N/A
343KOEBERLEAlain0:54:11N/A4994N/A
1808GUTSCHENRITTERGuy0:54:30N/A4965N/A
13331SEILLERFabien0:54:59N/A4921N/A
13620VIELBrieuc0:55:06N/A4911N/A
2953VUILLEMINMichel0:55:54N/A4840N/A
4683MAITREThierry0:56:59N/A4748N/A
11430BERNAUERChristophe0:57:37N/A4696N/A
2796LEGALLAISJ-Luc0:58:50N/A4599N/A
11513HAURYGilles1:01:54N/A4371N/A
702WYMERIsabelle1:02:19N/A4342N/A
2369BRELLMANNHubert1:03:27N/A4264N/A
1910MEYERJ-Marc1:05:27N/A4134N/A
4586MITTERANDBruno1:09:25N/A3898N/A
1897FRICKBernard1:13:56N/A3660N/A
15852CLEYET-MERLEChristophe1:14:14N/A3645N/A
3905JOUFFROYMichel1:15:25N/A3588N/A
745TINCHANTEstelle1:17:04N/A3511N/A
12828REICHAlain1:19:07N/A3420N/A
13688FRANCOISAline1:22:08N/A3294N/A
18199BERGOENDJ. Robert1:22:20N/A3286N/A
17080SCHAMBERGERDaniel1:22:57N/A3262N/A
720CLOEZVeronique1:30:08N/A3002N/A
4215CHAPUISLaurence1:33:40N/A2889N/A
4216GROSJEANThierry1:34:48N/A2854N/A
13636KORCHAKTom1:36:25N/A2806N/A
14216VILLARIsabelle1:37:14N/A2783N/A
318KOEBERLEManon1:39:27N/A2721N/A
17493CRUELLSHélène1:46:35N/A2539N/A
13351DRUZETICCecilia1:51:39N/A2423N/A
17279FINOCCHIOJ-Luc2:02:55N/A2201N/A
17029BONNINMathildeN/AN/A0N/A

  Indice de confiance du circuit (moyenne des différences entre CN et score sur la course des 3 à 10 premiers) : 164




 Circuit "C"

Licence Nom Prénom Temps CN
précédent
Score sur
la course
Différence
2937STRIBEAUMichel0:41:20N/A5172N/A
353PAPONRoland0:47:20N/A4517N/A
1906MERTZAndre0:49:03N/A4359N/A
738POURREValerie0:49:41N/A4303N/A
9924BOICHUTIsabelle0:50:51N/A4204N/A
2378MAKOVICKAVeronique0:51:04N/A4187N/A
12037KOCH-MATHIANChristophe0:51:47N/A4129N/A
11505CORREYves0:56:19N/A3796N/A
12831ANDRESBernard0:57:10N/A3740N/A
7573OUDINBernard0:58:34N/A3650N/A
2268BOTTEMERChristian0:58:51N/A3633N/A
13637KORCHAKLena0:59:13N/A3610N/A
7259SUTTERAriane1:01:00N/A3505N/A
2370CHARLOTPatrick1:01:27N/A3479N/A
13687EHRHARDTCecile1:02:35N/A3416N/A
11510BRELLMANNEvelyne1:03:46N/A3353N/A
8217ANDRESClaire1:04:31N/A3314N/A
2952ARMBRUSTERMarie1:04:44N/A3303N/A
1710CERINIJ-Michel1:05:23N/A3270N/A
13692HAURYEvelyne1:05:36N/A3259N/A
5533THIEBAULTJ-Philippe1:09:38N/A3070N/A
1909MEYERCorinne1:10:54N/A3015N/A
10908COLINClement1:11:32N/A2989N/A
13710WISSONBernard1:13:59N/A2890N/A
13178HOLLNicolas1:14:46N/A2859N/A
9035RUHLMANNMarion1:15:16N/A2840N/A
3904JOUFFROYChristine1:16:36N/A2791N/A
13693HAURYMarc1:18:54N/A2710N/A
2274RAMEYBernard1:19:59N/A2673N/A
14223FISCHERGuy1:22:25N/A2594N/A
15858CASASSASAntoine1:25:23N/A2504N/A
12146WISSONFlorent1:26:32N/A2471N/A
15297BOEHMYves1:34:52N/A2254N/A
2393ZIMMERMANNM-Laurenc1:39:25N/A2150N/A
18730DALONLaurence1:40:13N/A2133N/A
14222GIRAUDNolwenn1:53:21N/A1886N/A
12829REICHM-Louise1:53:53N/A1877N/A
14221GIRAUDGwenola1:54:08N/A1873N/A
12375ASMUSSENFlorence1:54:19N/A1870N/A
340FISCHERM-DominiqueN/AN/A0N/A
18731DALONAlexandreN/AN/A0N/A
15295WISSONPetraN/AN/A0N/A
2386SUTTERJeanN/AN/A0N/A
2376MAKOVICKALiborN/AN/A0N/A

  Indice de confiance du circuit (moyenne des différences entre CN et score sur la course des 3 à 10 premiers) : 124




 Circuit "D"

Licence Nom Prénom Temps CN
précédent
Score sur
la course
Différence
7260SUTTEROlivier0:32:36N/A3951N/A
11511BRELLMANNMichel0:35:40N/A3611N/A
2558VOGTClaude0:36:35N/A3521N/A
17394ASMUSSENPascal0:36:38N/A3516N/A
2271HOFERERAlbert0:37:15N/A3458N/A
746TINCHANTJ-Marc0:38:03N/A3385N/A
1916RUHLMANNJ-Pierre0:38:17N/A3365N/A
17371HUGUELBenjamin0:39:15N/A3282N/A
2555RIAULTBernard0:40:40N/A3167N/A
6779MAKOVICKAElsa0:41:30N/A3104N/A
2557VOGTChristiane0:43:47N/A2942N/A
13478KORCHAKNicole0:46:16N/A2784N/A
5866HITZLeo0:47:15N/A2726N/A
12374JACQUOTGhislaine0:47:29N/A2713N/A
11071POINSENOTRoger0:49:16N/A2614N/A
1895SALORT - METZSylvie0:50:25N/A2555N/A
326BERBETTGabriel0:50:59N/A2526N/A
748TINCHANTPascale0:51:39N/A2494N/A
10077POURREMarion0:51:40N/A2493N/A
18467GOETTMANNPierre-Aimé0:52:38N/A2447N/A
17170VUILLEMINGuillaume0:53:00N/A2430N/A
12036KOCH-MATHIANFrancine0:53:41N/A2399N/A
1816SANTAMARIACharline0:53:42N/A2399N/A
370WOEHRLEGilbert0:54:15N/A2374N/A
7574OUDINM-Reine0:55:33N/A2319N/A
11748STRIBEAUMelanie0:55:52N/A2306N/A
2387SUTTEROdile0:55:56N/A2303N/A
12102BOUVERETMichelle0:57:27N/A2242N/A
14278ALTHAUSBoris0:58:36N/A2198N/A
18705TESSIERElise1:03:09N/A2040N/A
3185PASCAUDClaire1:04:03N/A2011N/A
15296GREVETClaudie1:04:04N/A2010N/A
10909COLINCamille1:16:06N/A1693N/A
10907COLINCarine1:17:42N/A1658N/A
14262ANDRESMoniqueN/AN/A0N/A

  Indice de confiance du circuit (moyenne des différences entre CN et score sur la course des 3 à 10 premiers) : 176




 Circuit "E"

Licence Nom Prénom Temps CN
précédent
Score sur
la course
Différence
18468GOETTMANNThomas0:28:57N/A2552N/A
352MULLERRaymond0:30:27N/A2426N/A
13638KORCHAKNathalie0:35:00N/A2111N/A
17778KOPFFClement0:36:06N/A2046N/A
4490THIEBAULTM-Paule0:38:11N/A1935N/A
13070ASMUSSENDaniele0:44:35N/A1657N/A
18542RUDKIEWICZMartin0:47:36N/A1552N/A
2546DESAINTJANAlice0:52:08N/A1417N/A
2547DESAINTJANClaude0:52:37N/A1404N/A
1883HITZRene0:59:17N/A1246N/A
17374PELTIERA-CharlotteN/AN/A0N/A

  Indice de confiance du circuit (moyenne des différences entre CN et score sur la course des 3 à 10 premiers) : 306




 Circuit "F"

Licence Nom Prénom Temps CN
précédent
Score sur
la course
Différence
18304BEAUDEUXThéo0:24:27N/A2149N/A
14273POURREJeremi0:25:23N/A2070N/A
10910COLINLeo0:26:42N/A1968N/A
14219GIRAUDPieric0:28:44N/A1829N/A
13872JOUFFROYAxel0:42:29N/A1237N/A

  Indice de confiance du circuit (moyenne des différences entre CN et score sur la course des 3 à 10 premiers) : 293




 Circuit "Jalonné"

Licence Nom Prénom Temps CN
précédent
Score sur
la course
Différence
17171VUILLEMINPauline0:20:48N/A2781N/A
13639KORCHAKEmilie0:22:58N/A2519N/A
13477DIETSCHJoel0:22:59N/A2517N/A
18540PELTIEREdouard0:26:53N/A2152N/A
16132GROSJEANCapucine0:30:11N/A1917N/A
13960GROSJEANApolline0:32:52N/A1760N/A
16649WYMERKylian0:35:49N/A1615N/A
18733DALONClara0:38:54N/A1487N/A
18699VILLARAlix0:38:58N/A1485N/A
14215VILLARZoe0:40:41N/A1422N/A
18732DALONInes0:40:41N/A1422N/A
17074FRANCOISLysa0:44:22N/A1304N/A
13873JOUFFROYSophiaN/AN/A0N/A

  Indice de confiance du circuit (moyenne des différences entre CN et score sur la course des 3 à 10 premiers) : 335






 Retour